When you browse on this site, cookies collect data to enhance your experience and personalize the content and advertising you see.
Visit our Privacy Policy to learn more. By continuing to use the site, you agree to this use of cookies and data.
  • In Romania
  • List of Countries
  • For 7 days
  • Water Temperature
  • Satellite Maps
  • Weather Map
  • Weather Widgets
  • user-avatar
    Login

    Hourly Weather Tinheyri

    Today, 21 January, Monday

    Time Temperature Precipitation Wind Pressure Humidity
    00:00 -6°C° 0.1 mm 7 mps 708 mmHg 83%
    01:00 -6°C° 0.1 mm 6 mps 708 mmHg 80%
    02:00 -6°C° 0.1 mm 5 mps 708 mmHg 83%
    03:00 -5°C° 0.1 mm 4 mps 707 mmHg 85%
    04:00 -5°C° 0.1 mm 2 mps 707 mmHg 88%
    05:00 -5°C° 0.3 mm 2 mps 707 mmHg 89%
    06:00 -5°C° 0.3 mm 2 mps 706 mmHg 91%
    07:00 -5°C° 0.3 mm 2 mps 706 mmHg 92%
    08:00 -5°C° 0.1 mm 2 mps 706 mmHg 92%
    09:00 -5°C° 0.1 mm 2 mps 706 mmHg 91%
    10:00 -5°C° 0.1 mm 2 mps 705 mmHg 91%
    11:00 -6°C° 0 mm 2 mps 705 mmHg 90%
    12:00 -4°C° 0 mm 1 mps 705 mmHg 89%
    13:00 -6°C° 0 mm 1 mps 705 mmHg 89%
    14:00 -7°C° 0.1 mm 2 mps 705 mmHg 89%
    15:00 -7°C° 0.1 mm 2 mps 705 mmHg 90%
    16:00 -7°C° 0.1 mm 2 mps 705 mmHg 91%
    17:00 -7°C° 0.1 mm 2 mps 705 mmHg 92%
    18:00 -7°C° 0.1 mm 3 mps 706 mmHg 92%
    19:00 -7°C° 0.1 mm 3 mps 706 mmHg 93%
    20:00 -7°C° 0.2 mm 3 mps 707 mmHg 91%
    21:00 -7°C° 0.2 mm 3 mps 707 mmHg 90%
    22:00 -7°C° 0.2 mm 4 mps 708 mmHg 88%
    23:00 -8°C° 0.1 mm 4 mps 709 mmHg 87%

    Tomorrow, 22 January, Tuesday

    Time Temperature Precipitation Wind Pressure Humidity
    00:00 -8°C° 0.1 mm 4 mps 710 mmHg 86%
    01:00 -8°C° 0.1 mm 5 mps 710 mmHg 85%
    02:00 -8°C° 0 mm 5 mps 711 mmHg 83%
    03:00 -8°C° 0 mm 5 mps 711 mmHg 81%
    04:00 -10°C° 0 mm 5 mps 712 mmHg 79%
    05:00 -8°C° 0.1 mm 5 mps 713 mmHg 81%
    06:00 -8°C° 0.1 mm 5 mps 714 mmHg 83%
    07:00 -8°C° 0.1 mm 5 mps 714 mmHg 85%
    08:00 -7°C° 0.2 mm 5 mps 715 mmHg 85%
    09:00 -7°C° 0.2 mm 5 mps 715 mmHg 84%
    10:00 -7°C° 0.2 mm 5 mps 716 mmHg 84%
    11:00 -7°C° 0.2 mm 5 mps 716 mmHg 85%
    12:00 -7°C° 0.2 mm 5 mps 717 mmHg 85%
    13:00 -7°C° 0.2 mm 5 mps 717 mmHg 86%
    14:00 -6°C° 0.3 mm 5 mps 717 mmHg 86%
    15:00 -6°C° 0.3 mm 5 mps 718 mmHg 86%
    16:00 -6°C° 0.3 mm 5 mps 718 mmHg 87%
    17:00 -6°C° 0.3 mm 5 mps 718 mmHg 87%
    18:00 -5°C° 0.3 mm 4 mps 719 mmHg 87%
    19:00 -5°C° 0.3 mm 4 mps 719 mmHg 87%
    20:00 -5°C° 0.5 mm 3 mps 720 mmHg 89%
    21:00 -5°C° 0.5 mm 3 mps 720 mmHg 91%
    22:00 -4°C° 0.5 mm 2 mps 720 mmHg 93%
    23:00 -4°C° 0.4 mm 2 mps 720 mmHg 92%

    Day after tomorrow, 23 January, Wednesday

    Time Temperature Precipitation Wind Pressure Humidity
    00:00 -4°C° 0.4 mm 2 mps 721 mmHg 92%
    01:00 -4°C° 0.4 mm 2 mps 721 mmHg 91%
    02:00 -4°C° 0.2 mm 2 mps 721 mmHg 88%
    03:00 -5°C° 0.2 mm 3 mps 721 mmHg 85%
    04:00 -5°C° 0.2 mm 3 mps 722 mmHg 82%
    05:00 -6°C° 0.1 mm 3 mps 722 mmHg 81%
    06:00 -5°C° 0.1 mm 2 mps 722 mmHg 80%
    07:00 -5°C° 0.1 mm 2 mps 722 mmHg 79%
    08:00 -6°C° 0 mm 2 mps 723 mmHg 82%
    09:00 -7°C° 0 mm 2 mps 723 mmHg 84%
    10:00 -7°C° 0 mm 2 mps 723 mmHg 87%
    11:00 -7°C° 0.1 mm 2 mps 723 mmHg 88%
    12:00 -6°C° 0.1 mm 2 mps 724 mmHg 89%
    13:00 -6°C° 0.1 mm 2 mps 724 mmHg 90%
    14:00 -6°C° 0.1 mm 2 mps 724 mmHg 90%
    15:00 -6°C° 0.1 mm 2 mps 724 mmHg 90%
    16:00 -6°C° 0.1 mm 2 mps 724 mmHg 91%
    17:00 -6°C° 0 mm 2 mps 724 mmHg 91%
    18:00 -7°C° 0 mm 2 mps 724 mmHg 92%
    19:00 -7°C° 0 mm 2 mps 724 mmHg 92%
    20:00 -7°C° 0 mm 2 mps 724 mmHg 92%
    21:00 -8°C° 0 mm 2 mps 724 mmHg 93%
    22:00 -8°C° 0 mm 2 mps 723 mmHg 93%
    23:00 -7°C° 0 mm 2 mps 723 mmHg 90%

    24 January, Thursday

    Time Temperature Precipitation Wind Pressure Humidity
    00:00 -7°C° 0 mm 2 mps 723 mmHg 88%
    01:00 -6°C° 0 mm 2 mps 722 mmHg 86%
    02:00 -6°C° 0.1 mm 2 mps 722 mmHg 87%
    03:00 -6°C° 0.1 mm 2 mps 721 mmHg 87%
    04:00 -6°C° 0.1 mm 2 mps 721 mmHg 88%
    05:00 -6°C° 0.2 mm 2 mps 720 mmHg 89%
    06:00 -6°C° 0.2 mm 2 mps 720 mmHg 90%
    07:00 -6°C° 0.2 mm 2 mps 720 mmHg 91%
    08:00 -6°C° 0.3 mm 3 mps 720 mmHg 91%
    09:00 -6°C° 0.3 mm 3 mps 719 mmHg 92%
    10:00 -6°C° 0.3 mm 3 mps 719 mmHg 92%
    11:00 -7°C° 0.3 mm 4 mps 719 mmHg 91%
    12:00 -5°C° 0.3 mm 4 mps 719 mmHg 90%
    13:00 -6°C° 0.3 mm 5 mps 718 mmHg 90%
    14:00 -6°C° 0.3 mm 5 mps 719 mmHg 89%
    15:00 -6°C° 0.3 mm 6 mps 719 mmHg 89%
    16:00 -6°C° 0.3 mm 6 mps 720 mmHg 89%
    17:00 -6°C° 0.3 mm 6 mps 721 mmHg 89%
    18:00 -5°C° 0.3 mm 6 mps 721 mmHg 88%
    19:00 -5°C° 0.3 mm 6 mps 722 mmHg 88%
    20:00 -6°C° 0.3 mm 7 mps 723 mmHg 89%
    21:00 -6°C° 0.3 mm 7 mps 724 mmHg 90%
    22:00 -6°C° 0.3 mm 7 mps 724 mmHg 91%
    23:00 -6°C° 0.1 mm 6 mps 725 mmHg 90%

    25 January, Friday

    Time Temperature Precipitation Wind Pressure Humidity
    00:00 -6°C° 0.1 mm 5 mps 725 mmHg 89%
    01:00 -7°C° 0.1 mm 4 mps 726 mmHg 88%
    02:00 -7°C° 0 mm 4 mps 726 mmHg 88%
    03:00 -6°C° 0 mm 3 mps 727 mmHg 88%
    04:00 -6°C° 0 mm 2 mps 727 mmHg 88%
    05:00 -7°C° 0 mm 2 mps 728 mmHg 89%
    06:00 -8°C° 0 mm 2 mps 728 mmHg 89%
    07:00 -7°C° 0 mm 1 mps 729 mmHg 90%
    08:00 -7°C° 0.4 mm 2 mps 729 mmHg 91%
    09:00 -7°C° 0.4 mm 3 mps 730 mmHg 92%
    10:00 -7°C° 0.4 mm 4 mps 730 mmHg 93%
    11:00 -7°C° 0.3 mm 4 mps 730 mmHg 91%
    12:00 -6°C° 0.3 mm 5 mps 731 mmHg 89%
    13:00 -6°C° 0.3 mm 5 mps 731 mmHg 87%
    14:00 -6°C° 0.1 mm 5 mps 731 mmHg 87%
    15:00 -7°C° 0.1 mm 5 mps 732 mmHg 87%
    16:00 -8°C° 0.1 mm 6 mps 732 mmHg 87%
    17:00 -7°C° 0.1 mm 5 mps 732 mmHg 86%
    18:00 -7°C° 0.1 mm 5 mps 733 mmHg 85%
    19:00 -8°C° 0.1 mm 5 mps 733 mmHg 84%
    20:00 -8°C° 0 mm 5 mps 734 mmHg 83%
    21:00 -9°C° 0 mm 4 mps 734 mmHg 81%
    22:00 -10°C° 0 mm 4 mps 734 mmHg 80%
    23:00 -9°C° 0 mm 3 mps 734 mmHg 80%

    26 January, Saturday

    Time Temperature Precipitation Wind Pressure Humidity
    00:00 -9°C° 0 mm 3 mps 735 mmHg 79%
    01:00 -9°C° 0 mm 2 mps 735 mmHg 79%
    02:00 -9°C° 0 mm 2 mps 735 mmHg 80%
    03:00 -9°C° 0 mm 2 mps 735 mmHg 80%
    04:00 -9°C° 0 mm 1 mps 735 mmHg 81%
    05:00 -9°C° 0 mm 1 mps 735 mmHg 83%
    06:00 -10°C° 0 mm 1 mps 735 mmHg 84%
    07:00 -10°C° 0 mm 1 mps 736 mmHg 86%
    08:00 -10°C° 0 mm 1 mps 736 mmHg 85%
    09:00 -10°C° 0 mm 1 mps 736 mmHg 85%
    10:00 -10°C° 0 mm 2 mps 736 mmHg 85%
    11:00 -10°C° 0 mm 2 mps 736 mmHg 84%
    12:00 -10°C° 0 mm 2 mps 736 mmHg 83%
    13:00 -10°C° 0 mm 2 mps 736 mmHg 83%
    14:00 -10°C° 0 mm 2 mps 736 mmHg 83%
    15:00 -10°C° 0 mm 2 mps 736 mmHg 83%
    16:00 -13°C° 0 mm 3 mps 736 mmHg 83%
    17:00 -12°C° 0.1 mm 3 mps 736 mmHg 84%
    18:00 -10°C° 0.1 mm 3 mps 736 mmHg 85%
    19:00 -9°C° 0.1 mm 3 mps 737 mmHg 86%
    20:00 -9°C° 0.1 mm 3 mps 737 mmHg 87%
    21:00 -7°C° 0.1 mm 2 mps 737 mmHg 87%
    22:00 -6°C° 0.1 mm 2 mps 737 mmHg 88%
    23:00 -6°C° 0.1 mm 2 mps 737 mmHg 87%
    Show more